Airfield :







YOU CAN JOIN US ON...

 
LOGIN :

Register | Disclaimer

   EN    FR    IT 

 









Legend :    VFR   Marginal VFR   IFR   Intensive IFR   Very Intensive IFR
Visi :
Ceiling :
>= 8 km
>= 3000ft
5 to 8 km
1000 to 3000 ft
1500m to 5 km
500 to 1000 ft
800 to 1500m
200 to 500 ft
< 800m
< 200 ft
Symbols :   Thunderstorms  Fog  Heavy snow  Heavy precipitations  Wind > 20 kt






- Airport Elevation : 244 ft


KSFM - Sanford Regional

CURRENT METAR :
  • 241356Z AUTO 16007G15KT 10SM OVC012 22/20 A3006 RMK AO2 SLP180 T02220200

EXPIRED METARs :
  • 241309Z AUTO 14007G15KT 110V180 10SM OVC010 22/20 A3005 RMK AO2 CIG 008V013
  • 241256Z AUTO 14007KT 10SM OVC008 22/20 A3005 RMK AO2 CIG 008V012 SLP179 T02170200
  • 241156Z AUTO 14007KT 10SM OVC006 21/20 A3005 RMK AO2 LTG DSNT E SLP178 T02110200 10211 20200 58004

TAF N/A
KZBW FIR / North America



MET'MAP, your aeronautical weather chart ! - Copyright ORBIFLY December 2007 - Disclaimer

ORBIFLY MET'MAP TEAM :

Programming & Development : Alexandra Zaïnal
Concept & original design : Baudouin d'Aumeries
Assistance for programming : Marc-Olivier Méhu
Technical & hardware support : Manuel Goepfert

Contact : metmap@orbifly.com




SOURCES & CREDITS :

   NOAA